Dewpoint
72 72 71 71 71 71 73 73 73 74 72 71 71 70 67 66 63 64 62 63 64 65 67 67 68 72 74 74 74 73 74 75 74 72 71 70 72 73 72 72 72 73 73 73 73 74 74 75 75 76 76 75 75 75 76 76 74 73 71 70 69 68 67 66 67 68 67 66 66 65 65 65 65 65
73 74 73 71 71 71 72 70 72 73 73 72 72 71 71 70 66 65 63 63 66 66 69 72 69 71 72 74 74 74 73 74 75 73 71 71 72 72 72 72 72 72 72 72 72 73 74 74 75 74 74 74 74 75 76 75 74 73 72 72 70 68 67 66 67 67 67 66 66 65 64 65 65 64
74 73 73 73 72 71 70 71 72 72 74 72 72 73 73 72 70 70 65 64 66 69 67 69 71 70 71 71 72 71 72 74 74 74 72 72 72 72 73 72 72 71 71 71 71 71 72 72 72 72 72 72 72 73 75 75 74 73 72 69 69 68 67 66 66 67 66 65 65 64 64 64 64 63
74 73 73 73 73 71 72 73 73 72 72 72 70 73 72 72 72 71 67 64 66 70 70 70 71 72 69 71 71 71 73 73 75 73 73 74 74 74 73 72 71 71 70 70 70 69 69 69 70 71 72 72 73 74 74 74 73 73 72 71 70 68 67 66 66 67 65 65 64 63 63 63 63 63
74 74 73 74 74 74 73 72 73 72 71 72 71 73 70 69 71 70 68 65 67 67 71 72 71 72 73 70 73 72 72 73 73 75 75 75 75 74 74 74 72 71 69 68 68 68 69 69 69 71 72 71 73 73 74 73 73 72 70 69 67 65 66 66 66 66 65 64 63 62 63 63 62 62
75 74 73 73 73 74 73 72 72 72 72 71 70 70 72 69 69 70 67 67 65 65 68 69 71 71 73 70 72 72 72 73 74 73 73 73 73 73 73 72 72 72 71 68 67 67 67 68 69 70 70 70 71 72 72 71 70 69 69 66 65 64 63 64 65 65 65 63 63 62 62 62 62 62
74 73 73 73 73 74 73 72 71 72 72 71 70 69 70 70 70 70 69 67 67 67 67 69 70 70 71 71 70 72 74 74 73 73 72 72 73 74 73 73 72 70 69 68 68 67 67 67 68 68 69 69 69 70 69 68 68 67 66 64 64 63 63 63 64 65 64 63 62 60 61 61 61 61
74 73 73 73 73 73 73 72 72 71 71 71 71 70 70 69 69 69 71 70 68 68 67 68 68 70 70 71 73 74 74 73 73 73 73 73 73 73 73 73 72 70 68 68 67 67 66 67 67 67 67 67 67 66 66 66 66 65 64 64 63 62 62 62 62 64 63 62 61 60 59 60 60 60
74 74 73 73 73 73 72 72 72 72 71 71 71 70 70 70 70 70 71 71 71 69 68 69 70 71 71 72 73 73 73 73 72 72 72 73 73 74 74 73 73 71 69 69 68 67 66 67 67 66 67 66 65 65 65 65 65 65 63 62 62 61 61 61 60 61 61 61 60 59 58 59 59 59
75 74 73 73 73 73 73 72 72 72 72 71 70 70 70 71 71 70 69 70 70 70 69 69 69 69 70 71 72 72 72 72 71 72 73 73 73 73 73 73 72 73 73 72 71 69 67 67 66 66 67 66 65 65 65 64 64 63 62 60 59 60 60 60 61 60 60 60 60 59 58 58 59 59
74 74 73 73 73 72 72 72 72 72 72 72 71 70 70 70 70 70 70 69 69 70 69 69 70 71 72 72 71 71 72 72 73 72 72 72 72 72 72 73 73 73 73 72 70 70 70 69 69 66 64 64 64 65 64 64 63 63 61 59 58 58 58 58 59 60 60 60 59 58 56 56 57 59
73 73 73 73 73 72 72 72 72 71 70 71 71 70 70 70 69 69 69 69 70 69 69 69 69 69 70 70 72 73 72 71 71 71 72 69 68 69 70 71 71 72 73 72 70 70 70 69 68 65 65 66 66 65 65 66 66 65 63 60 60 60 58 58 58 59 59 58 58 57 55 54 56 58
72 72 71 71 71 72 76 75 74 74 73 71 70 70 70 70 69 69 69 68 68 68 68 68 69 69 70 71 71 71 70 71 70 71 68 68 69 70 71 72 73 74 73 73 72 72 73 72 71 71 70 71 69 68 67 67 68 67 63 61 61 60 59 58 58 58 58 58 58 56 55 55 56 57
70 70 70 70 74 76 75 73 72 71 72 75 72 70 70 70 69 69 68 68 68 68 67 67 67 68 69 69 70 70 70 70 70 70 70 69 70 70 70 70 71 73 73 72 72 72 72 72 72 72 72 72 72 72 70 69 68 67 64 63 61 60 60 59 58 58 58 58 57 57 55 55 56 56
69 69 69 69 71 75 77 74 71 69 69 69 72 73 73 73 69 68 68 68 69 69 68 68 68 69 68 69 70 70 70 70 70 70 69 69 69 68 67 67 69 70 73 71 68 69 70 71 70 71 72 72 73 73 72 70 68 65 64 63 62 61 60 60 59 58 57 57 57 57 56 55 56 55
69 69 68 68 67 68 68 69 71 73 71 68 68 68 70 71 72 71 69 68 69 69 69 69 69 69 69 69 70 70 70 70 70 69 69 68 67 67 67 66 65 67 73 69 67 67 68 69 70 71 72 73 74 74 71 68 67 66 64 63 62 61 60 60 60 60 59 58 58 58 58 57 57 56
68 68 69 67 67 66 72 73 69 68 69 70 68 67 67 68 68 67 67 69 70 70 70 70 70 70 70 70 71 71 70 69 69 69 69 68 67 67 66 66 66 67 70 68 67 67 68 70 69 70 71 72 72 72 69 68 67 66 65 64 63 62 61 60 60 60 59 59 58 58 58 57 57 56
68 68 68 68 68 67 67 67 67 68 69 70 70 70 70 69 70 69 67 67 68 70 71 71 70 70 71 70 70 72 71 70 70 70 69 69 68 68 68 69 68 69 73 69 68 68 68 69 70 71 71 71 70 70 68 66 65 65 64 64 62 61 60 60 59 59 59 58 58 57 56 56 55 55
69 68 68 67 67 67 67 67 67 66 65 66 68 69 69 69 68 68 67 68 68 68 68 70 71 71 71 71 72 72 73 72 72 72 71 70 70 70 70 70 71 71 72 71 69 68 69 69 68 70 70 70 70 71 68 66 65 65 63 63 62 61 60 60 59 59 58 58 57 57 56 55 54 54
69 69 68 68 67 67 67 69 67 69 67 65 64 65 66 67 68 68 69 65 66 68 68 68 68 68 69 67 69 69 68 68 68 71 70 69 70 69 68 67 67 67 68 72 72 70 69 71 70 70 71 71 71 71 70 66 65 64 62 62 61 60 59 59 59 58 58 57 57 57 55 54 53 52
70 69 68 68 67 67 67 67 62 63 68 66 65 64 63 64 64 65 67 65 62 62 62 62 63 62 62 62 61 60 60 64 65 65 65 64 65 65 64 64 64 65 67 70 72 70 69 71 70 70 71 70 69 67 67 68 65 62 60 60 60 59 59 58 57 57 57 57 57 57 56 54 52 52
69 69 72 74 68 66 66 64 61 61 65 65 65 65 64 64 64 65 66 67 68 62 60 60 61 61 62 62 61 62 61 61 64 64 64 65 65 64 64 63 64 65 67 68 72 68 70 71 67 67 66 66 67 67 68 69 64 60 59 58 58 58 58 58 57 57 56 56 56 56 55 53 52 54
69 69 71 73 70 68 66 61 60 60 64 65 65 65 64 64 64 64 65 66 67 68 69 69 68 68 67 67 66 67 64 64 69 66 66 66 65 65 64 64 64 64 65 66 71 68 67 66 66 65 64 62 64 67 69 68 63 61 62 61 60 57 57 57 56 55 55 55 55 56 54 53 53 54
68 68 68 69 63 61 61 60 59 58 58 65 66 66 66 65 65 66 66 67 66 66 67 66 67 69 69 70 70 70 70 70 71 68 67 66 66 65 65 65 65 64 64 66 70 67 66 66 65 65 65 63 61 64 66 66 63 62 61 61 61 59 58 58 57 55 53 53 54 54 54 53 53 53
67 67 68 68 65 60 58 57 56 56 56 60 67 68 67 67 66 67 65 65 71 67 67 67 67 66 67 67 68 69 69 69 69 69 67 67 66 66 66 65 65 65 66 67 68 67 66 65 65 64 64 65 64 64 64 65 65 64 63 62 62 61 59 59 58 58 54 52 52 52 52 53 52 53
66 66 67 67 65 60 58 56 55 54 55 55 63 65 59 59 59 64 66 65 65 65 66 67 67 67 67 66 66 67 68 69 69 69 68 67 67 67 67 66 66 65 66 68 65 68 67 66 66 66 65 63 64 64 64 64 66 64 63 62 62 62 60 60 59 58 57 56 55 52 53 52 53 52
67 67 67 68 68 60 57 55 55 54 54 56 59 56 56 57 57 62 64 65 66 65 66 66 66 67 68 68 68 69 69 70 70 70 70 70 69 69 68 68 67 67 67 68 71 69 68 67 68 67 66 65 65 64 63 64 65 63 63 63 63 62 61 59 59 59 58 57 57 53 51 51 52 53
67 67 68 67 61 54 52 52 53 53 54 59 56 54 55 56 58 62 63 63 65 66 65 66 66 67 67 68 68 69 70 71 72 72 72 71 71 70 70 70 70 69 69 69 69 70 69 68 68 68 67 66 65 64 64 66 68 65 66 64 64 63 62 60 59 60 60 58 57 56 54 52 52 51
65 62 55 54 54 54 54 53 53 56 57 53 53 54 55 58 62 63 64 64 65 65 65 66 67 67 67 68 69 70 70 71 72 72 73 73 73 73 72 72 72 71 71 71 70 70 70 69 68 69 68 67 66 66 66 66 67 67 67 66 65 65 64 62 61 60 60 59 58 57 56 55 53 53
57 55 55 55 55 57 59 63 64 64 65 61 57 55 56 61 62 63 64 64 65 65 65 66 66 67 68 68 69 70 71 71 70 70 70 70 70 70 71 71 71 72 72 72 72 71 71 70 70 70 69 68 68 68 68 67 67 67 68 68 68 68 66 64 62 61 62 61 60 59 59 57 56 54
64 65 65 64 60 59 60 60 61 62 65 66 66 66 65 64 64 64 64 65 65 66 66 66 67 67 68 69 69 70 70 70 70 71 70 70 70 70 69 69 69 69 70 71 72 72 72 72 71 71 69 69 69 68 68 68 67 67 68 69 69 68 67 66 65 63 62 62 62 61 61 59 58 60
65 67 66 65 68 68 68 68 67 66 66 65 65 66 67 67 66 66 66 66 66 66 67 67 68 68 68 68 69 69 69 70 70 70 70 70 70 69 69 68 68 68 68 69 70 72 74 72 72 72 71 70 69 70 69 69 69 69 69 69 70 70 70 68 67 65 64 63 62 61 61 60 59 58
63 65 67 67 68 68 68 67 68 68 68 68 68 68 68 68 68 67 66 65 65 66 66 66 67 67 68 68 69 69 69 69 70 70 70 70 70 70 69 68 68 68 68 68 68 69 72 73 73 72 72 71 71 70 70 69 69 69 69 69 69 70 71 71 70 69 65 63 63 63 63 62 62 61
60 64 66 66 67 67 68 68 68 68 68 68 67 68 65 67 68 68 67 66 66 67 66 67 67 67 67 68 68 69 69 69 70 70 68 70 70 69 69 69 69 69 68 68 69 68 68 71 72 73 73 72 72 71 71 69 69 69 69 70 70 70 70 71 71 70 67 66 65 64 64 64 64 63
63 64 65 65 66 67 67 68 68 68 68 68 68 68 67 68 67 66 67 68 67 67 67 67 67 67 67 67 68 68 68 69 69 70 70 70 70 70 69 69 69 69 69 69 69 69 69 69 69 70 70 71 71 72 72 72 70 70 70 70 70 70 71 71 72 70 68 67 67 67 67 66 66 65
61 62 64 65 65 66 67 67 68 69 69 69 69 68 68 68 68 68 69 69 69 68 68 68 67 68 68 68 68 68 68 67 69 69 69 69 69 69 69 69 69 69 69 69 69 70 69 69 69 68 68 68 68 68 69 70 70 72 71 70 71 71 71 71 71 71 68 68 67 67 67 67 67 67
61 63 64 65 65 66 67 68 69 69 69 69 69 69 69 69 69 70 70 69 70 69 70 69 69 69 68 68 68 67 67 68 68 68 68 69 69 69 69 69 68 69 69 69 70 70 70 69 69 69 68 68 68 67 68 70 68 68 72 71 71 71 71 71 71 71 70 69 67 67 67 68 68 68
62 63 64 65 65 66 67 68 68 69 69 69 69 69 69 70 70 71 71 71 70 69 69 69 69 69 69 69 69 69 69 69 69 69 68 69 69 69 69 69 69 69 69 69 69 69 70 70 70 69 69 68 68 68 68 69 70 69 66 71 71 71 71 71 71 71 71 70 69 68 67 67 68 68
62 61 61 62 63 64 65 66 67 68 69 69 70 70 70 70 71 71 70 70 70 70 70 69 69 69 68 69 69 69 69 69 69 69 69 69 69 69 69 69 69 69 69 69 69 70 70 70 70 70 70 70 69 69 69 69 68 69 67 62 70 72 72 72 71 72 72 71 70 70 69 68 66 61
59 59 59 59 59 60 61 62 63 63 63 64 66 69 70 70 71 71 71 70 70 70 70 70 69 68 69 69 69 69 69 69 69 69 69 69 68 69 69 69 69 69 69 68 68 69 69 70 71 71 71 71 71 72 69 68 69 70 70 67 58 68 73 73 72 72 71 72 71 69 69 68 67 66
56 56 55 55 56 56 58 59 61 61 61 62 62 62 64 64 66 69 70 71 71 71 70 70 70 70 70 70 70 69 69 69 69 69 69 69 68 67 67 65 68 69 68 68 68 69 69 69 71 67 70 71 69 69 68 68 67 68 69 70 62 59 62 67 73 73 72 71 71 70 70 70 69 67
53 52 52 53 54 55 56 57 58 59 58 59 60 61 61 62 63 62 64 67 69 70 71 71 71 70 70 71 70 69 69 69 69 69 68 69 69 68 66 67 68 68 68 68 68 68 70 70 70 68 68 68 67 67 66 67 67 68 68 69 69 62 60 60 62 66 73 72 70 68 68 68 65 66
52 51 51 52 53 54 55 56 56 57 56 56 57 57 58 59 60 61 63 63 64 65 67 69 70 71 71 71 71 70 70 69 69 69 69 69 69 69 69 69 68 69 69 69 69 70 70 70 70 69 69 68 68 67 67 67 68 68 68 69 69 69 69 62 59 60 62 63 65 68 70 69 66 65
49 49 49 51 52 52 52 53 54 54 55 54 55 55 56 56 57 58 60 60 61 62 63 63 64 65 67 69 70 70 70 70 70 70 70 69 69 69 69 69 68 69 69 69 69 69 70 70 70 70 69 68 69 68 67 68 68 68 68 69 69 69 69 69 68 62 60 61 60 60 61 63 65 65
48 48 49 49 50 50 51 52 52 53 53 53 53 53 54 54 55 56 56 58 58 59 60 60 61 62 63 63 63 64 65 63 64 67 68 69 69 69 69 69 68 68 69 69 69 69 69 69 69 69 69 69 69 68 68 67 67 67 67 68 68 68 69 67 67 67 66 67 64 60 60 60 61 61